• In Hungary
  • List of Countries
  • For 7 days
  • Water Temperature
  • Satellite Maps
  • Weather Map
  • News
  • Weather Widgets
  • user-avatar
    Login

    Hourly Weather Cochabamba

    Today, 23 October, Monday

    Time Temperature Precipitation Wind Pressure Humidity
    00:00 +14°C° 0 mm 2 mps 556 mmHg 74%
    01:00 +14°C° 0 mm 2 mps 556 mmHg 74%
    02:00 +14°C° 0 mm 2 mps 556 mmHg 73%
    03:00 +14°C° 0 mm 2 mps 556 mmHg 73%
    04:00 +14°C° 0 mm 2 mps 555 mmHg 73%
    05:00 +13°C° 0 mm 2 mps 555 mmHg 72%
    06:00 +14°C° 0 mm 2 mps 556 mmHg 67%
    07:00 +15°C° 0 mm 2 mps 556 mmHg 61%
    08:00 +16°C° 0 mm 2 mps 557 mmHg 55%
    09:00 +19°C° 0 mm 1 mps 557 mmHg 50%
    10:00 +21°C° 0 mm 1 mps 558 mmHg 45%
    11:00 +22°C° 0 mm 1 mps 559 mmHg 40%
    12:00 +23°C° 0.2 mm 2 mps 558 mmHg 39%
    13:00 +22°C° 0.2 mm 3 mps 558 mmHg 38%
    14:00 +24°C° 0.2 mm 3 mps 557 mmHg 38%
    15:00 +22°C° 0.4 mm 3 mps 557 mmHg 41%
    16:00 +21°C° 0.4 mm 3 mps 556 mmHg 45%
    17:00 +21°C° 0.4 mm 3 mps 555 mmHg 49%
    18:00 +20°C° 0.2 mm 3 mps 555 mmHg 53%
    19:00 +19°C° 0.2 mm 2 mps 555 mmHg 56%
    20:00 +18°C° 0.2 mm 2 mps 556 mmHg 60%
    21:00 +17°C° 0.1 mm 2 mps 556 mmHg 63%
    22:00 +16°C° 0.1 mm 2 mps 556 mmHg 65%
    23:00 +16°C° 0.1 mm 2 mps 556 mmHg 68%

    Tomorrow, 24 October, Tuesday

    Time Temperature Precipitation Wind Pressure Humidity
    00:00 +15°C° 0 mm 2 mps 555 mmHg 68%
    01:00 +15°C° 0 mm 1 mps 555 mmHg 68%
    02:00 +14°C° 0 mm 1 mps 554 mmHg 68%
    03:00 +14°C° 0 mm 1 mps 554 mmHg 67%
    04:00 +14°C° 0 mm 1 mps 553 mmHg 65%
    05:00 +13°C° 0 mm 1 mps 553 mmHg 63%
    06:00 +15°C° 0 mm 1 mps 554 mmHg 55%
    07:00 +18°C° 0 mm 1 mps 555 mmHg 47%
    08:00 +19°C° 0 mm 2 mps 557 mmHg 39%
    09:00 +20°C° 0 mm 2 mps 557 mmHg 36%
    10:00 +23°C° 0 mm 2 mps 558 mmHg 32%
    11:00 +24°C° 0 mm 2 mps 559 mmHg 29%
    12:00 +25°C° 0.2 mm 3 mps 558 mmHg 32%
    13:00 +25°C° 0.2 mm 3 mps 557 mmHg 35%
    14:00 +25°C° 0.2 mm 4 mps 557 mmHg 38%
    15:00 +23°C° 0.2 mm 4 mps 556 mmHg 43%
    16:00 +22°C° 0.2 mm 4 mps 555 mmHg 48%
    17:00 +21°C° 0.2 mm 4 mps 554 mmHg 53%
    18:00 +19°C° 0.3 mm 4 mps 554 mmHg 58%
    19:00 +18°C° 0.3 mm 4 mps 554 mmHg 64%
    20:00 +17°C° 0.3 mm 4 mps 554 mmHg 69%
    21:00 +17°C° 0 mm 3 mps 555 mmHg 70%
    22:00 +16°C° 0 mm 2 mps 555 mmHg 71%
    23:00 +16°C° 0 mm 2 mps 555 mmHg 72%

    Day after tomorrow, 25 October, Wednesday

    Time Temperature Precipitation Wind Pressure Humidity
    00:00 +16°C° 0 mm 2 mps 555 mmHg 73%
    01:00 +16°C° 0 mm 1 mps 555 mmHg 73%
    02:00 +15°C° 0 mm 1 mps 554 mmHg 73%
    03:00 +15°C° 0 mm 1 mps 554 mmHg 72%
    04:00 +15°C° 0 mm 1 mps 554 mmHg 72%
    05:00 +15°C° 0 mm 1 mps 554 mmHg 72%
    06:00 +16°C° 0.1 mm 1 mps 555 mmHg 66%
    07:00 +18°C° 0.1 mm 1 mps 556 mmHg 60%
    08:00 +18°C° 0.1 mm 2 mps 557 mmHg 55%
    09:00 +20°C° 0.1 mm 2 mps 557 mmHg 49%
    10:00 +21°C° 0.1 mm 2 mps 558 mmHg 43%
    11:00 +24°C° 0.1 mm 3 mps 558 mmHg 38%
    12:00 +24°C° 0.6 mm 3 mps 558 mmHg 39%
    13:00 +23°C° 0.6 mm 4 mps 557 mmHg 40%
    14:00 +23°C° 0.6 mm 4 mps 556 mmHg 41%
    15:00 +23°C° 0.4 mm 4 mps 556 mmHg 45%
    16:00 +22°C° 0.4 mm 4 mps 555 mmHg 49%
    17:00 +21°C° 0.4 mm 5 mps 554 mmHg 52%
    18:00 +20°C° 0.2 mm 4 mps 554 mmHg 58%
    19:00 +18°C° 0.2 mm 4 mps 554 mmHg 63%
    20:00 +17°C° 0.2 mm 4 mps 554 mmHg 69%
    21:00 +17°C° 0 mm 3 mps 554 mmHg 69%
    22:00 +17°C° 0 mm 3 mps 554 mmHg 69%
    23:00 +17°C° 0 mm 2 mps 555 mmHg 70%

    26 October, Thursday

    Time Temperature Precipitation Wind Pressure Humidity
    00:00 +16°C° 0.1 mm 2 mps 554 mmHg 70%
    01:00 +16°C° 0.1 mm 2 mps 554 mmHg 70%
    02:00 +15°C° 0.1 mm 2 mps 553 mmHg 70%
    03:00 +15°C° 0.1 mm 2 mps 553 mmHg 69%
    04:00 +15°C° 0.1 mm 2 mps 553 mmHg 68%
    05:00 +15°C° 0.1 mm 2 mps 552 mmHg 68%
    06:00 +16°C° 0 mm 2 mps 554 mmHg 60%
    07:00 +18°C° 0 mm 2 mps 555 mmHg 53%
    08:00 +20°C° 0 mm 2 mps 556 mmHg 46%
    09:00 +21°C° 0.1 mm 2 mps 557 mmHg 42%
    10:00 +24°C° 0.1 mm 2 mps 557 mmHg 38%
    11:00 +25°C° 0.1 mm 3 mps 558 mmHg 34%
    12:00 +25°C° 0.4 mm 3 mps 557 mmHg 37%
    13:00 +25°C° 0.4 mm 4 mps 556 mmHg 40%
    14:00 +25°C° 0.4 mm 5 mps 556 mmHg 42%
    15:00 +23°C° 0.5 mm 5 mps 555 mmHg 47%
    16:00 +22°C° 0.5 mm 4 mps 554 mmHg 52%
    17:00 +21°C° 0.5 mm 4 mps 554 mmHg 57%
    18:00 +20°C° 0.3 mm 4 mps 554 mmHg 61%
    19:00 +19°C° 0.3 mm 3 mps 554 mmHg 65%
    20:00 +18°C° 0.3 mm 3 mps 554 mmHg 68%
    21:00 +18°C° 0.1 mm 3 mps 554 mmHg 69%
    22:00 +17°C° 0.1 mm 2 mps 555 mmHg 70%
    23:00 +17°C° 0.1 mm 2 mps 555 mmHg 71%

    27 October, Friday

    Time Temperature Precipitation Wind Pressure Humidity
    00:00 +16°C° 0 mm 2 mps 554 mmHg 71%
    01:00 +16°C° 0 mm 2 mps 554 mmHg 71%
    02:00 +16°C° 0 mm 2 mps 553 mmHg 71%
    03:00 +15°C° 0.2 mm 2 mps 553 mmHg 71%
    04:00 +15°C° 0.2 mm 2 mps 553 mmHg 70%
    05:00 +15°C° 0.2 mm 1 mps 552 mmHg 70%
    06:00 +16°C° 0 mm 1 mps 553 mmHg 63%
    07:00 +19°C° 0 mm 1 mps 555 mmHg 55%
    08:00 +20°C° 0 mm 2 mps 556 mmHg 48%
    09:00 +21°C° 0.1 mm 2 mps 556 mmHg 44%
    10:00 +24°C° 0.1 mm 2 mps 557 mmHg 40%
    11:00 +25°C° 0.1 mm 2 mps 557 mmHg 37%
    12:00 +25°C° 0.7 mm 3 mps 556 mmHg 39%
    13:00 +25°C° 0.7 mm 4 mps 556 mmHg 42%
    14:00 +25°C° 0.7 mm 5 mps 555 mmHg 44%
    15:00 +23°C° 0.7 mm 4 mps 554 mmHg 49%
    16:00 +22°C° 0.7 mm 4 mps 553 mmHg 53%
    17:00 +21°C° 0.7 mm 4 mps 553 mmHg 57%
    18:00 +20°C° 0.2 mm 4 mps 553 mmHg 61%
    19:00 +19°C° 0.2 mm 4 mps 553 mmHg 65%
    20:00 +18°C° 0.2 mm 4 mps 553 mmHg 68%
    21:00 +18°C° 0.2 mm 3 mps 554 mmHg 69%
    22:00 +17°C° 0.2 mm 3 mps 554 mmHg 69%
    23:00 +17°C° 0.2 mm 2 mps 554 mmHg 69%

    28 October, Saturday

    Time Temperature Precipitation Wind Pressure Humidity
    00:00 +17°C° 0.1 mm 2 mps 553 mmHg 70%
    01:00 +16°C° 0.1 mm 2 mps 553 mmHg 71%
    02:00 +16°C° 0.1 mm 1 mps 552 mmHg 71%
    03:00 +16°C° 0.2 mm 1 mps 552 mmHg 72%
    04:00 +15°C° 0.2 mm 1 mps 552 mmHg 73%
    05:00 +15°C° 0.2 mm 1 mps 552 mmHg 73%
    06:00 +16°C° 0.1 mm 2 mps 553 mmHg 70%
    07:00 +17°C° 0.1 mm 2 mps 554 mmHg 66%
    08:00 +18°C° 0.1 mm 2 mps 555 mmHg 62%
    09:00 +19°C° 0.2 mm 3 mps 555 mmHg 59%
    10:00 +20°C° 0.2 mm 4 mps 555 mmHg 56%
    11:00 +21°C° 0.2 mm 4 mps 555 mmHg 53%
    12:00 +21°C° 0.5 mm 5 mps 554 mmHg 54%
    13:00 +21°C° 0.5 mm 5 mps 554 mmHg 56%
    14:00 +21°C° 0.5 mm 6 mps 553 mmHg 57%
    15:00 +20°C° 0.4 mm 6 mps 552 mmHg 59%
    16:00 +20°C° 0.4 mm 6 mps 552 mmHg 61%
    17:00 +19°C° 0.4 mm 6 mps 551 mmHg 63%
    18:00 +17°C° 0.2 mm 5 mps 551 mmHg 66%
    19:00 +16°C° 0.2 mm 5 mps 552 mmHg 70%
    20:00 +15°C° 0.2 mm 4 mps 552 mmHg 74%
    21:00 +15°C° 0 mm 4 mps 552 mmHg 74%
    22:00 +16°C° 0 mm 3 mps 552 mmHg 74%
    23:00 +16°C° 0 mm 3 mps 552 mmHg 74%

    29 October, Sunday

    Time Temperature Precipitation Wind Pressure Humidity
    00:00 +14°C° 0.1 mm 3 mps 552 mmHg 73%
    01:00 +15°C° 0.1 mm 2 mps 551 mmHg 72%
    02:00 +15°C° 0.1 mm 2 mps 551 mmHg 72%
    03:00 +14°C° 0 mm 2 mps 551 mmHg 69%
    04:00 +14°C° 0 mm 2 mps 551 mmHg 66%
    05:00 +14°C° 0 mm 2 mps 551 mmHg 63%
    06:00 +16°C° 0 mm 2 mps 552 mmHg 52%
    07:00 +17°C° 0 mm 2 mps 553 mmHg 42%
    08:00 +19°C° 0 mm 2 mps 555 mmHg 31%
    09:00 +21°C° 0 mm 2 mps 555 mmHg 29%
    10:00 +23°C° 0 mm 2 mps 556 mmHg 26%
    11:00 +24°C° 0 mm 2 mps 556 mmHg 23%
    12:00 +25°C° 0.3 mm 3 mps 555 mmHg 26%
    13:00 +25°C° 0.3 mm 3 mps 555 mmHg 28%
    14:00 +26°C° 0.3 mm 3 mps 554 mmHg 31%
    15:00 +25°C° 0.4 mm 4 mps 554 mmHg 35%
    16:00 +23°C° 0.4 mm 4 mps 553 mmHg 39%
    17:00 +23°C° 0.4 mm 4 mps 553 mmHg 44%
    18:00 +21°C° 0.2 mm 4 mps 553 mmHg 52%
    19:00 +19°C° 0.2 mm 4 mps 552 mmHg 61%
    20:00 +18°C° 0.2 mm 4 mps 552 mmHg 69%
    21:00 +17°C° 0.1 mm 3 mps 552 mmHg 69%
    22:00 +17°C° 0.1 mm 3 mps 553 mmHg 68%
    23:00 +16°C° 0.1 mm 2 mps 553 mmHg 68%
    Show more